This is the latest recevied weather packets stored in our database for station/object SV7RNH. If no packets are shown the sender has not sent any weather packets the latest 10 day(s).
| Time | Temp. | Humidity | Pressure | Rain* | Wind** | Luminosity | Snow |
|---|---|---|---|---|---|---|---|
| 1777819503 | 21.11° C | 10% | 1018.7 hPa | 0 mm | - | - | - |
| 1777819204 | 21.11° C | 10% | 1018.7 hPa | 0 mm | - | - | - |
| 1777818904 | 21.11° C | 10% | 1018.7 hPa | 0 mm | - | - | - |
| 1777818603 | 21.11° C | 10% | 1018.6 hPa | 0 mm | - | - | - |
| 1777818303 | 20.56° C | 10% | 1018.7 hPa | 0 mm | - | - | - |
| 1777818003 | 21.67° C | 10% | 1018.7 hPa | 0 mm | - | - | - |
| 1777817703 | 22.22° C | 10% | 1018.7 hPa | 0 mm | - | - | - |
| 1777817403 | 22.78° C | 10% | 1018.8 hPa | 0 mm | - | - | - |
| 1777817104 | 22.78° C | 10% | 1018.7 hPa | 0 mm | - | - | - |
| 1777816804 | 22.78° C | 10% | 1018.8 hPa | 0 mm | - | - | - |
| 1777816503 | 22.78° C | 10% | 1018.9 hPa | 0 mm | - | - | - |
| 1777816203 | 22.78° C | 10% | 1018.8 hPa | 0 mm | - | - | - |
| 1777815904 | 22.78° C | 10% | 1018.9 hPa | 0 mm | - | - | - |
| 1777815604 | 22.22° C | 10% | 1018.9 hPa | 0 mm | - | - | - |
| 1777815303 | 22.22° C | 10% | 1019 hPa | 0 mm | - | - | - |
| 1777815003 | 21.67° C | 10% | 1019.1 hPa | 0 mm | - | - | - |
| 1777814704 | 21.11° C | 10% | 1019 hPa | 0 mm | - | - | - |
| 1777814404 | 21.11° C | 10% | 1019.2 hPa | 0 mm | - | - | - |
| 1777814103 | 22.78° C | 10% | 1019.2 hPa | 0 mm | - | - | - |
| 1777813804 | 23.33° C | 10% | 1019.3 hPa | 0 mm | - | - | - |
| 1777813504 | 22.22° C | 10% | 1019.3 hPa | 0 mm | - | - | - |
| 1777813203 | 21.67° C | 10% | 1019.3 hPa | 0 mm | - | - | - |
| 1777812904 | 21.67° C | 10% | 1019.5 hPa | 0 mm | - | - | - |
| 1777812604 | 21.67° C | 10% | 1019.5 hPa | 0 mm | - | - | - |
| 1777812303 | 21.67° C | 10% | 1019.5 hPa | 0 mm | - | - | - |
* Rain latest hour (hover to see other rain measurements)
** Current wind speed in m/s (hover to see current wind gust speed)